EW8836 Weather Reports


time (UTC)temp
C
wind
direction
speed
KPH
gust
KPH
rain 1hr
cm
rain 24hr
cm
rain mn
cm
humidity
%
barometer
mb
20260507083143 13 38 0.0 3.2 0.00 0.51 0.03 89 1014.0
20260507081609 12 318 0.0 3.2 0.00 0.51 0.03 92 1014.0
20260507080053 12 276 0.0 4.8 0.00 0.51 0.03 90 1014.1
20260507074551 12 352 0.0 1.6 0.00 0.51 0.03 93 1014.0
20260507073106 12 149 0.0 4.8 0.00 0.51 0.03 96 1014.0
20260507071604 11 5 0.0 1.6 0.00 0.51 0.03 97 1014.1
20260507070101 10 349 0.0 1.6 0.00 0.51 0.03 97 1014.0
20260507064605 10 295 0.0 1.6 0.00 0.51 0.03 98 1013.9
20260507063104 10 34 0.0 1.6 0.00 0.51 0.03 99 1013.9
20260507061524 10 41 0.0 1.6 0.00 0.51 0.03 98 1013.7
20260507060106 9 4 0.0 0.0 0.00 0.51 0.03 99 1013.7
20260507054547 9 4 0.0 1.6 0.00 0.51 0.03 99 1013.7
20260507053052 8 4 0.0 0.0 0.00 0.51 0.03 99 1013.3
20260507051603 8 4 0.0 0.0 0.00 0.51 0.03 99 1013.2
20260507050141 8 4 0.0 0.0 0.00 0.51 0.03 99 1013.2
20260507044605 8 4 0.0 0.0 0.00 0.51 0.03 99 1013.0
20260507043046 8 4 0.0 0.0 0.00 0.51 0.03 99 1013.1
20260507041550 8 4 0.0 0.0 0.00 0.51 0.03 98 1013.0
20260507040106 8 4 0.0 0.0 0.00 0.51 0.03 98 1013.0
20260507034605 8 11 0.0 1.6 0.00 0.51 0.03 98 1013.0
20260507033142 8 15 0.0 0.0 0.00 0.51 0.03 98 1013.2
20260507031600 8 15 0.0 0.0 0.03 0.51 0.03 98 1013.0
20260507030052 8 15 0.0 0.0 0.03 0.51 0.03 98 1013.0
20260507024601 8 15 0.0 0.0 0.03 0.51 0.03 98 1013.0
20260507023106 8 15 0.0 0.0 0.03 0.51 0.03 98 1013.0
20260507021558 8 15 0.0 0.0 0.00 0.48 0.00 98 1013.0
20260507014559 8 15 0.0 0.0 0.00 0.48 0.00 98 1012.9
20260507013104 8 15 0.0 0.0 0.00 0.48 0.00 98 1012.9
20260507011550 8 15 0.0 0.0 0.00 0.48 0.00 98 1013.0
20260507010113 8 15 0.0 0.0 0.00 0.48 0.00 98 1012.8
20260507004546 8 15 0.0 0.0 0.00 0.48 0.00 98 1012.9
20260507003059 8 15 0.0 0.0 0.00 0.48 0.00 97 1012.9
20260507001603 8 16 0.0 0.0 0.00 0.48 0.00 97 1012.9
20260507000051 8 16 0.0 0.0 0.00 0.48 0.00 97 1012.8
20260506234550 8 16 0.0 0.0 0.00 0.48 0.00 97 1012.9
20260506233103 9 16 0.0 0.0 0.00 0.48 0.00 97 1012.9
20260506231559 9 16 0.0 0.0 0.00 0.48 0.00 97 1012.8
20260506230050 9 16 0.0 0.0 0.00 0.48 0.00 97 1012.8
20260506224604 9 15 0.0 0.0 0.00 0.48 0.00 96 1012.6
20260506223103 9 16 0.0 0.0 0.00 0.48 0.00 96 1012.5
20260506221554 10 16 0.0 0.0 0.00 0.48 0.00 96 1012.4
20260506220002 10 16 0.0 0.0 0.00 0.48 0.00 96 1012.3
20260506214544 10 16 0.0 0.0 0.00 0.48 0.48 96 1012.4
20260506213055 10 1 0.0 1.6 0.00 0.48 0.48 96 1012.2
20260506211600 10 68 0.0 1.6 0.00 0.48 0.48 96 1012.2
20260506204611 10 242 0.0 0.0 0.05 0.48 0.48 96 1012.1
20260506203052 10 242 0.0 1.6 0.05 0.48 0.48 96 1012.0
20260506201601 10 247 0.0 1.6 0.05 0.48 0.48 96 1011.8
20260506200058 10 243 0.0 3.2 0.03 0.46 0.46 95 1011.6
20260506194548 10 225 0.0 0.0 0.00 0.43 0.43 94 1011.4
20260506193105 11 225 0.0 0.0 0.00 0.43 0.43 93 1011.2
20260506191546 11 225 0.0 0.0 0.00 0.43 0.43 93 1011.1
20260506190108 11 225 0.0 0.0 0.00 0.43 0.43 92 1010.8
20260506184604 11 225 0.0 0.0 0.00 0.43 0.43 91 1010.6
20260506183102 12 225 0.0 1.6 0.00 0.43 0.43 91 1010.5
20260506181552 12 84 0.0 1.6 0.00 0.43 0.43 90 1010.5
20260506180105 12 343 0.0 1.6 0.00 0.43 0.43 90 1010.2
20260506174559 12 77 0.0 1.6 0.00 0.43 0.43 92 1010.0
20260506173127 12 87 0.0 3.2 0.00 0.43 0.43 92 1009.9
20260506171549 12 72 0.0 3.2 0.00 0.43 0.43 92 1009.9
20260506170105 12 272 0.0 1.6 0.00 0.43 0.43 91 1009.8
20260506164555 13 62 0.0 4.8 0.00 0.43 0.43 90 1009.6
20260506163106 14 56 0.0 3.2 0.05 0.43 0.43 92 1009.6
20260506161612 13 300 0.0 4.8 0.08 0.43 0.43 92 1009.5
20260506160111 13 328 0.0 3.2 0.15 0.43 0.43 93 1009.6
20260506154601 13 82 0.0 1.6 0.23 0.48 0.43 97 1009.4
20260506153105 11 71 0.0 3.2 0.20 0.43 0.38 96 1009.5
20260506151556 11 72 0.0 1.6 0.15 0.38 0.33 96 1009.5
20260506150109 11 66 0.0 1.6 0.15 0.33 0.28 95 1009.6
20260506144613 11 358 0.0 1.6 0.20 0.23 0.20 94 1009.6
20260506143053 10 86 0.0 1.6 0.18 0.23 0.18 93 1009.4
20260506141601 11 145 0.0 6.4 0.18 0.23 0.18 90 1009.3
20260506140127 12 28 0.0 6.4 0.10 0.15 0.10 85 1009.2
20260506134554 13 102 0.0 4.8 0.00 0.05 0.00 81 1009.3
20260506133133 15 93 1.6 8.0 0.00 0.05 0.00 75 1009.2
20260506131600 16 268 0.0 12.9 0.00 0.05 0.00 67 1008.7
20260506130140 16 263 6.4 11.3 0.00 0.05 0.00 66 1008.6
20260506124602 16 266 3.2 11.3 0.00 0.05 0.00 72 1008.5
20260506123049 16 249 6.4 17.7 0.00 0.05 0.00 69 1008.6
20260506121553 16 229 6.4 11.3 0.00 0.05 0.00 70 1008.6
20260506120052 16 180 4.8 14.5 0.00 0.05 0.00 70 1008.6
20260506114544 16 231 6.4 12.9 0.00 0.05 0.00 71 1008.6
20260506113059 16 224 4.8 12.9 0.00 0.05 0.00 72 1008.5
20260506111554 16 248 8.0 16.1 0.00 0.05 0.00 74 1008.7
20260506110006 15 214 4.8 14.5 0.00 0.05 0.00 75 1008.8
20260506104603 15 139 8.0 17.7 0.00 0.05 0.00 76 1008.9
20260506103104 15 221 8.0 14.5 0.00 0.05 0.00 77 1009.0
20260506101600 15 221 6.4 12.9 0.00 0.05 0.00 77 1009.0
20260506100110 15 247 4.8 14.5 0.00 0.05 0.00 78 1008.9
20260506094606 14 141 4.8 14.5 0.00 0.05 0.00 80 1008.8
20260506093104 13 275 4.8 16.1 0.00 0.05 0.00 80 1008.6
20260506091558 13 255 8.0 19.3 0.00 0.05 0.00 80 1008.9
20260506090050 13 254 8.0 20.9 0.00 0.05 0.00 82 1008.7
20260506084605 12 239 4.8 16.1 0.00 0.05 0.00 84 1008.5